ContactaLinksHome
    
DADES METEOROLÒGIQUES DE LES ÚLTIMES 24 HORES
 

Taire  Temperatura de l'aire  (ºC)
HumitatR  Humitat relativa de l'aire (%)
Pluja  Litres de pluja per metre cuadrat caiguts en 10 minuts (l/m²)
VelVent  Velocitat mitjana del vent (m/s)
DirVent  Direcció del vent  (º)
RadSolar  Intensitat de Radiació solar (w/m²)
PressAtm  Pressió atmosfèrica (mb)
  ***Dades sense verificar
DataTaireHumitatRPlujaVelVentDirVentRadSolarPressAtm
23/01/2019 21:20:007.7510,05.03360998
23/01/2019 21:10:007.6520,04.8120998
23/01/2019 21:00:007.7530,05.4358099999
23/01/2019 20:50:008.1530,07.1110998
23/01/2019 20:40:008.7530,05.7300998
23/01/2019 20:30:008.7510,05.2150998
23/01/2019 20:20:008.7500,04.73440998
23/01/2019 20:10:008.7500,03.8120998
23/01/2019 20:00:008.8500,03.9200998
23/01/2019 19:50:009.2520,03.9320997
23/01/2019 19:40:009.3490,02.4250997
23/01/2019 19:30:009.2490,01.63390997
23/01/2019 19:20:009.2510,01.73050997
23/01/2019 19:10:009.1540,01.62770997
23/01/2019 19:00:009.1530,00.9540997
23/01/2019 18:50:009.1530,00.72860997
23/01/2019 18:40:009.1530,02.53490997
23/01/2019 18:30:009.2570,05.7190997
23/01/2019 18:20:009.2570,06.7330996
23/01/2019 18:10:009.3540,06.4380997
23/01/2019 18:00:009.5550,06.6420997
23/01/2019 17:50:009.8550,05.7480997
23/01/2019 17:40:0010.2550,06.2390996
23/01/2019 17:30:0010.3540,04.2230996
23/01/2019 17:20:0010.5520,03.5250996
23/01/2019 17:10:0010.6520,04.13370995
23/01/2019 17:00:0010.7520,03.63472995
23/01/2019 16:50:0010.9520,03.532811995
23/01/2019 16:40:0011.1510,03.233327995
23/01/2019 16:30:0011.3510,04.831562995
23/01/2019 16:20:0011.3490,03.831674995
23/01/2019 16:10:0011.6490,06.131976995
23/01/2019 16:00:0011.8480,14.427293995
23/01/2019 15:50:0011.9470,04.5324154995
23/01/2019 15:40:0012.1470,04.9282228994
23/01/2019 15:30:0012.1470,05.4326301994
23/01/2019 15:20:0012.1480,06.1336326994
23/01/2019 15:10:0012.1490,03.9319339994
23/01/2019 15:00:0012.0500,02.3320338994
23/01/2019 14:50:0012.2490,03.7346324994
23/01/2019 14:40:0012.1490,02.315323994
23/01/2019 14:30:0012.0480,03.1325332994
23/01/2019 14:20:0011.7490,04.5319442994
23/01/2019 14:10:0011.4510,02.9324412994
23/01/2019 14:00:0011.1500,05.5340422994
23/01/2019 13:50:0011.0510,03.8332371994
23/01/2019 13:40:0010.8510,03.8318323995
23/01/2019 13:30:0010.5530,03.3303517995
23/01/2019 13:20:0010.2540,03.2309525995
23/01/2019 13:10:0010.1550,04.0272427995
23/01/2019 13:00:009.8560,04.9316368995
23/01/2019 12:50:009.7560,05.3315401995
23/01/2019 12:40:009.6570,05.5317490995
23/01/2019 12:30:009.2570,05.9328545995
23/01/2019 12:20:009.1580,06.0327532995
23/01/2019 12:10:009.0600,04.6317468996
23/01/2019 12:00:008.9620,02.1334500996
23/01/2019 11:50:008.7620,02.326534996
23/01/2019 11:40:008.3630,02.5356410996
23/01/2019 11:30:008.2650,02.6310317996
23/01/2019 11:20:007.9660,02.7308358997
23/01/2019 11:10:007.6660,02.9257334997
23/01/2019 11:00:007.6650,03.1310504997
23/01/2019 10:50:007.4670,03.3332445998
23/01/2019 10:40:007.3670,02.8331375998
23/01/2019 10:30:007.3680,02.0337268998
23/01/2019 10:20:007.1690,02.216345998
23/01/2019 10:10:006.9720,02.03267998
23/01/2019 10:00:006.8720,01.4276286997
23/01/2019 9:50:006.5740,02.8277221997
23/01/2019 9:40:006.5730,02.5257131998
23/01/2019 9:30:006.6740,01.427687998
23/01/2019 9:20:006.5730,01.432196998
23/01/2019 9:10:006.5710,01.027678998
23/01/2019 9:00:006.7700,11.828735998
23/01/2019 8:50:006.8680,11.828122998
23/01/2019 8:40:006.8670,02.026621998
23/01/2019 8:30:006.6660,02.724320998
23/01/2019 8:20:006.5640,04.524913998
23/01/2019 8:10:006.5650,04.42529998
23/01/2019 8:00:006.3640,04.82835998
23/01/2019 7:50:006.3650,03.62807998
23/01/2019 7:40:006.2650,03.12784998
23/01/2019 7:30:006.2640,02.82991998
23/01/2019 7:20:006.2640,03.62881998
23/01/2019 7:10:006.1640,03.82910998
23/01/2019 7:00:005.9650,04.92780999
23/01/2019 6:50:005.8650,04.22780999
23/01/2019 6:40:005.9650,04.42820998
23/01/2019 6:30:005.8660,05.03060999
23/01/2019 6:20:005.7660,03.92730999
23/01/2019 6:10:005.7660,03.23070999
23/01/2019 6:00:005.5660,03.13280999
23/01/2019 5:50:005.4670,02.93080999
23/01/2019 5:40:005.5660,03.932001000
23/01/2019 5:30:005.5660,03.031001000
23/01/2019 5:20:005.5660,03.330601000
23/01/2019 5:10:005.6660,03.330501000
23/01/2019 5:00:005.6660,01.431401000
23/01/2019 4:50:005.7660,02.529901000
23/01/2019 4:40:005.8650,04.732601000
23/01/2019 4:30:006.0640,03.731401000
23/01/2019 4:20:006.0640,01.930801001
23/01/2019 4:10:006.0640,01.829801001
23/01/2019 4:00:006.0640,03.628101001
23/01/2019 3:50:005.9650,03.830301001
23/01/2019 3:40:006.1650,03.928701002
23/01/2019 3:30:006.2650,02.232801002
23/01/2019 3:20:006.2640,03.631101002
23/01/2019 3:10:006.3640,04.630301002
23/01/2019 3:00:006.3650,04.132001002
23/01/2019 2:50:006.2640,04.931701002
23/01/2019 2:40:006.4640,04.030201002
23/01/2019 2:30:006.5640,04.830901003
23/01/2019 2:20:006.6630,05.332401003
23/01/2019 2:10:006.6630,05.032301003
23/01/2019 2:00:006.6630,05.431701003
23/01/2019 1:50:006.8630,05.432401003
23/01/2019 1:40:006.7630,05.032301003
23/01/2019 1:30:006.6630,04.832201003
23/01/2019 1:20:006.6620,04.331701003
23/01/2019 1:10:006.7630,04.232601003
23/01/2019 1:00:006.7630,04.331201004
23/01/2019 0:50:006.5610,04.331901004
23/01/2019 0:40:006.7590,04.530601004
23/01/2019 0:30:006.8560,04.832501004
23/01/2019 0:20:006.8570,04.232101004
23/01/2019 0:10:006.7570,04.432001004
23/01/2019 0:00:006.7580,04.832001004
22/01/2019 23:50:006.8580,04.431501005
22/01/2019 23:40:007.2560,04.031401005
22/01/2019 23:30:007.2540,03.431601005
22/01/2019 23:20:006.8550,03.332501005
22/01/2019 23:10:006.7570,03.234901005
22/01/2019 23:00:006.7580,03.435701005
22/01/2019 22:50:006.8570,04.332301005
22/01/2019 22:40:006.9560,04.432701005
22/01/2019 22:30:006.9560,03.633401005
22/01/2019 22:20:006.9560,03.331501005
22/01/2019 22:10:007.0560,02.432101005
22/01/2019 22:00:007.1560,03.731401005
22/01/2019 21:50:007.2550,03.230901005
22/01/2019 21:40:007.3540,03.631001005
22/01/2019 21:30:007.4540,02.130501005

ÚLTIMES FOTOS WEBCAM
Imatges del Pont
ÚLTIMES DADES

23/01/2019  
22:20h Local  (21:20 GMT)
 
 Velocitat mitjana del Vent
   5,0 m/s
 Direcció del Vent
   336º
 Humitat Relativa
   51 %
 Temperatura Aparent
   4,7 ºC
 Pluja Acumulada
   0,3 l/m²
      
 Temperatura de l'aigua    N/A
 Alçada d'ona    N/A
 Direcció d'ona    N/A
 Velocitat del corrent    N/A
 Direcció del corrent    N/A